Location: Home
(42.5358°N, 72.7383°W)
Time: 03:17:48
(UTC-04:00)

Vanguard 1 - Pass Details

Date: 31 May 2022
Orbit: 649 x 3832 km, 34.2° (Epoch: 24 June)

Event Time Altitude Azimuth Distance (km) Brightness Sun altitude
Exits shadow 22:25:40 18° 119° (ESE) 3,748 12.5 -17.5°
Drops below altitude 10° 22:31:49 10° 94° (E) 5,029 13.3 -18.1°
Sets 22:38:38 0° 79° (E) 6,713 14.1 -18.8°
